[[{"header":{"parameterUnit":"m.s-1","parameterCategory":1,"la1":30.2992,"la2":30.254,"lo1":-89.0895,"lo2":-89.0443,"dy":0.0025,"dx":0.0025,"nx":19,"ny":19,"refTime":"2026-03-17T03:00:00:Z","depth":0,"parameterNumber":2,"parameterNumberName":"U-component_of_WINDS"},"data":[0,0,0,1.5088,1.5089,1.5151,1.5151,1.5231,1.5232,0,0,0,0,0,0,0,0,0,0,0,1.5068,1.5068,1.5088,1.5089,1.5151,1.5151,1.5231,1.5232,0,0,0,0,0,0,0,0,0,0,0,1.5068,1.5068,1.5069,1.5089,1.5151,1.5151,1.5231,1.5184,0,0,0,0,0,0,0,0,0,0,1.5124,1.5104,1.5068,1.5069,1.509,1.5151,1.5151,1.5182,1.5187,1.5203,0,1.5215,0,1.5225,1.5237,1.5237,0,0,0,1.509,1.51,1.5118,1.5069,1.509,1.5151,1.5123,1.5185,1.5191,1.5209,1.5216,1.5219,1.5226,1.5238,1.5238,1.5322,1.5322,0,0,1.5087,1.5079,1.5114,1.5121,1.511,1.5121,1.5125,1.5188,1.5195,1.5216,1.5221,1.5227,1.5238,1.5239,1.5322,1.5322,0,0,0,1.5076,1.5076,1.5093,1.5118,1.5129,1.5123,1.5128,1.5193,1.5199,1.5222,1.5228,1.5238,1.5239,1.5321,1.5322,1.5331,0,0,0,1.5074,1.507,1.5091,1.5086,1.5128,1.5161,1.513,1.5194,1.5202,1.5228,1.5239,1.524,1.5321,1.5322,1.533,1.5336,0,0,0,1.5064,1.5069,1.5077,1.5086,1.5112,1.516,1.517,1.5196,1.5205,1.5237,1.524,1.5321,1.5322,1.5329,1.5335,1.5357,0,0,0,1.5052,1.5083,1.5077,1.5116,1.5112,1.5165,1.517,1.521,1.5238,1.5239,1.5321,1.5322,1.5328,1.5334,1.5356,1.5375,1.5381,0,0,1.5087,1.5087,1.5111,1.5107,1.5159,1.5156,1.5211,1.5244,1.5255,1.53,1.5302,1.533,1.5335,1.5357,1.5421,1.5426,0,0,0,1.5119,1.5136,1.5152,1.5178,1.5205,1.5229,1.5256,1.5269,1.5307,1.5276,1.5344,1.5347,1.536,1.537,1.5374,1.5387,1.5326,1.5325,1.5325,1.5158,1.517,1.521,1.5231,1.5257,1.5285,1.5308,1.5331,1.5335,1.5351,1.5364,1.5401,1.5412,1.5415,1.5428,1.5375,1.5375,1.5375,1.5375,1.5212,1.5238,1.5245,1.5286,1.53,1.5335,1.5365,1.5367,1.5403,1.5392,1.5404,1.5391,1.5421,1.5433,1.5376,1.5375,1.5375,1.5375,1.5375,1.5239,1.5254,1.5269,1.531,1.5341,1.5361,1.5396,1.5407,1.5418,1.5431,1.5447,1.5447,1.5449,1.5437,1.5438,1.5438,1.5438,1.5438,1.5438,1.5261,1.5278,1.5305,1.5338,1.5357,1.5385,1.5415,1.5435,1.5461,1.5466,1.5467,1.5471,1.5421,1.5408,1.544,1.544,1.5439,1.5439,1.5439,1.5312,1.5302,1.5344,1.5364,1.5405,1.5436,1.545,1.5491,1.5509,1.5527,1.5529,1.549,1.5491,1.5487,1.5477,1.5525,1.5525,1.5525,1.5525,1.5335,1.5337,1.5383,1.5415,1.5447,1.5465,1.5515,1.5539,1.5564,1.5577,1.5571,1.5559,1.5555,1.5559,1.5554,1.5544,1.5608,1.5608,1.5608,1.5368,1.5374,1.5413,1.5436,1.5469,1.5498,1.5545,1.5583,1.5608,1.5612,1.5587,1.5584,1.5564,1.5556,1.5559,1.5551,1.5534,0,0]},{"header":{"parameterUnit":"m.s-1","parameterCategory":1,"la1":30.2992,"la2":30.254,"lo1":-89.0895,"lo2":-89.0443,"dy":0.0025,"dx":0.0025,"nx":19,"ny":19,"refTime":"2026-03-17T03:00:00:Z","depth":0,"parameterNumber":3,"parameterNumberName":"V-component_of_WINDS"},"data":[0,0,0,-4.8156,-4.8157,-4.8228,-4.8229,-4.8314,-4.8315,0,0,0,0,0,0,0,0,0,0,0,-4.8133,-4.8134,-4.8156,-4.8157,-4.8228,-4.8229,-4.8314,-4.8315,0,0,0,0,0,0,0,0,0,0,0,-4.8133,-4.8134,-4.8134,-4.8158,-4.8228,-4.8229,-4.8314,-4.8262,0,0,0,0,0,0,0,0,0,0,-4.8194,-4.8172,-4.8133,-4.8134,-4.8158,-4.8228,-4.8229,-4.8259,-4.8265,-4.8281,0,-4.8295,0,-4.8307,-4.8321,-4.8321,0,0,0,-4.8158,-4.8167,-4.8188,-4.8134,-4.8159,-4.8228,-4.8196,-4.8263,-4.8269,-4.8288,-4.8297,-4.83,-4.8308,-4.8321,-4.8322,-4.8415,-4.8415,0,0,-4.8154,-4.8144,-4.8183,-4.8192,-4.8183,-4.8194,-4.8199,-4.8267,-4.8274,-4.8297,-4.8302,-4.831,-4.8322,-4.8323,-4.8414,-4.8415,0,0,0,-4.8142,-4.8142,-4.8161,-4.8188,-4.8202,-4.8196,-4.8201,-4.8271,-4.8279,-4.8303,-4.8311,-4.8322,-4.8323,-4.8414,-4.8415,-4.8427,0,0,0,-4.814,-4.8135,-4.8159,-4.8154,-4.82,-4.8238,-4.8205,-4.8274,-4.8282,-4.831,-4.8322,-4.8324,-4.8413,-4.8414,-4.8425,-4.8433,0,0,0,-4.8129,-4.8134,-4.8144,-4.8153,-4.8184,-4.8237,-4.8248,-4.8276,-4.8287,-4.8321,-4.8324,-4.8413,-4.8414,-4.8424,-4.8431,-4.8455,0,0,0,-4.8114,-4.8151,-4.8144,-4.8189,-4.8183,-4.8245,-4.8248,-4.8293,-4.8324,-4.8323,-4.8414,-4.8414,-4.8424,-4.843,-4.8454,-4.8474,-4.8481,0,0,-4.8156,-4.8156,-4.8183,-4.8179,-4.8239,-4.8234,-4.8296,-4.8332,-4.8343,-4.839,-4.8392,-4.8426,-4.8431,-4.8455,-4.8528,-4.8534,0,0,0,-4.8193,-4.8213,-4.8231,-4.8262,-4.8292,-4.8319,-4.8347,-4.8361,-4.8402,-4.8366,-4.8441,-4.8445,-4.8459,-4.8469,-4.8474,-4.8487,-4.8419,-4.8419,-4.8419,-4.8237,-4.8252,-4.8299,-4.8323,-4.8352,-4.8383,-4.8408,-4.8431,-4.8435,-4.8453,-4.8466,-4.8509,-4.852,-4.8524,-4.8537,-4.8478,-4.8478,-4.8478,-4.8478,-4.83,-4.833,-4.8338,-4.8386,-4.8401,-4.8441,-4.8472,-4.8474,-4.8513,-4.8499,-4.8512,-4.8496,-4.853,-4.8542,-4.8479,-4.8479,-4.8479,-4.8479,-4.8479,-4.8329,-4.8346,-4.8365,-4.8413,-4.8447,-4.847,-4.8508,-4.852,-4.8531,-4.8544,-4.856,-4.856,-4.8561,-4.8551,-4.8552,-4.8552,-4.8552,-4.8552,-4.8552,-4.8352,-4.8373,-4.8405,-4.8443,-4.8465,-4.8496,-4.8529,-4.8551,-4.8578,-4.8584,-4.8584,-4.8586,-4.8531,-4.8517,-4.8554,-4.8554,-4.8554,-4.8553,-4.8553,-4.8408,-4.8399,-4.8447,-4.847,-4.8517,-4.8552,-4.8568,-4.8612,-4.8632,-4.865,-4.8651,-4.8609,-4.8609,-4.8605,-4.8593,-4.8648,-4.8648,-4.8648,-4.8648,-4.8433,-4.8436,-4.849,-4.8526,-4.8563,-4.8583,-4.8638,-4.8665,-4.869,-4.8703,-4.8697,-4.8683,-4.8679,-4.8681,-4.8676,-4.8665,-4.8737,-4.8737,-4.8737,-4.8468,-4.8476,-4.852,-4.8548,-4.8586,-4.8619,-4.867,-4.8711,-4.8737,-4.8741,-4.8714,-4.871,-4.8687,-4.8679,-4.8679,-4.867,-4.8651,0,0]}]]